377  
ASUS41 KRLX 221110  
RWRRLX  
REGIONAL WEATHER ROUNDUP  
NATIONAL WEATHER SERVICE CHARLESTON WV  
700 AM EDT THU AUG 22 2019  
 
NOTE: "FAIR" INDICATES FEW OR NO CLOUDS BELOW 12,000 FEET WITH NO  
SIGNIFICANT WEATHER AND/OR S TO VISIBILITY
.  
 
WVZ003-221200-  
NORTHERN PANHANDLE OF WEST VIRGINIA  
 
CITY SKY/WX TMP DP RH WIND PRES REMARKS
 
WHEELING FAIR 66 65 96 S5 29.98R  

 
 
WVZ009-221200-  
NORTHWEST WEST VIRGINIA  
 
CITY SKY/WX TMP DP RH WIND PRES REMARKS
 
PARKERSBURG CLEAR 66 64 94 CALM 30.02  

 
 
WVZ006-221200-  
WESTERN WEST VIRGINIA  
 
CITY SKY/WX TMP DP RH WIND PRES REMARKS
 
HUNTINGTON MOCLDY 72 70 93 SW3 29.98S  

 
 
WVZ015-221200-  
WEST CENTRAL WEST VIRGINIA  
 
CITY SKY/WX TMP DP RH WIND PRES REMARKS
 
CHARLESTON FAIR 69 67 93 CALM 30.00R  

 
 
WVZ022-031-221200-  
NORTH CENTRAL WEST VIRGINIA  
 
CITY SKY/WX TMP DP RH WIND PRES REMARKS
 
MORGANTOWN FAIR 65 65 100 CALM 30.02R FOG  
CLARKSBURG FAIR 67 64 90 CALM 30.01R FOG  
BUCKHANNON CLOUDY 66 66 100 CALM 30.04R FOG  

 
 
WVZ025-035-042-045-221200-  
SOUTHERN WEST VIRGINIA  
 
CITY SKY/WX TMP DP RH WIND PRES REMARKS
 
BECKLEY MOCLDY 69 64 84 S5 30.11R  
LOGAN CLOUDY 72 70 94 CALM 30.05S  
PINEVILLE FAIR 67 66 97 MISG 30.12R  
BLUEFIELD MOCLDY 69 64 84 SW6 30.14R  
LEWISBURG NOT AVBL  

 
 
WVZ047-221200-  
NORTHERN MOUNTAINS OF WEST VIRGINIA  
 
CITY SKY/WX TMP DP RH WIND PRES REMARKS
 
ELKINS MOCLDY 66 63 90 CALM 30.06R  

 
 
WVZ052-221200-  
EASTERN PANHANDLE OF WEST VIRGINIA  
 
CITY SKY/WX TMP DP RH WIND PRES REMARKS
 
MARTINSBURG FAIR N/A N/A N/A SW3 29.95R  
PETERSBURG CLOUDY 66 66 99 CALM 30.00R FOG  

 
 
SOUTHEAST OHIO/NORTHEAST KENTUCKY  
 
CITY SKY/WX TMP DP RH WIND PRES REMARKS
 
ATHENS MOCLDY 67 67 100 CALM 29.99R  
ASHLAND MOCLDY 73 71 93 CALM 29.98R  

 
 
 
CLICK HERE TO GO TO PREVIOUS BULLETINS.

The Nexlab WV Page
The Nexlab OH Page
The Nexlab KY Page
The Nexlab VA Page Main Text Page